Shelbyville, IN

12:23 PM EDT on September 24, 2017 (GMT -0400)
Shelbyville Municipal

Weather History for KGEZ - May, 2012

Change the Weather History Date:

Thursday, May 31, 2012

  Actual Average Record
Temperature  
Mean Temperature 67 °F 68 °F  
Max Temperature 80 °F 78 °F 92 °F (2011)
Min Temperature 53 °F 57 °F 50 °F (2003)
Degree Days  
Heating Degree Days 0 2  
Month to date heating degree days 19 136  
Since 1 July heating degree days 4137 5395  
Cooling Degree Days 2 4  
Month to date cooling degree days 185 68  
Year to date cooling degree days 240 81  
Growing Degree Days 16 (Base 50)    
Moisture  
Dew Point 52 °F    
Average Humidity 63    
Maximum Humidity 90    
Minimum Humidity 35    
Precipitation  
Precipitation 0.15 in 0.15 in 0.74 in (1999)
Month to date precipitation 2.79 5.28  
Year to date precipitation 13.05 17.78  
Sea Level Pressure  
Sea Level Pressure 29.79 in    
Wind  
Wind Speed 8 mph (NE)    
Max Wind Speed 22 mph    
Max Gust Speed 29 mph    
Visibility 9 miles    
Events Rain , Thunderstorm    
T = Trace of Precipitation, MM = Missing Value Source: NWS Daily Summary

Daily Weather History Graph

Daily Weather History Graph

Search for Another Location

Airport or City:

Trip Planner

Search our weather history database for the weather conditions in past years. The results will help you decide how hot, cold, wet, or windy it might be!

Date:

Astronomy

May. 31, 2012 Rise Set
Actual Time 6:17 AM EDT 9:04 PM EDT
Civil Twilight 5:46 AM EDT 9:36 PM EDT
Nautical Twilight 5:06 AM EDT 10:16 PM EDT
Astronomical Twilight 4:20 AM EDT 11:01 PM EDT
Moon 4:53 PM EDT (5/31) 3:14 AM EDT (5/31)
Length of Visible Light 15h 50m
Length of Day
14h 46m
Waxing Gibbous, 80% of the Moon is Illuminated
May 31
Waxing Gibbous
Jun 4
Full
Jun 11
Last Quarter
Jun 19
New
Jun 26
First Quarter

Hourly Weather History & Observations

Time (EDT) Temp. Dew Point Humidity Pressure Visibility Wind Dir Wind Speed Gust Speed Precip Events Conditions
12:53 AM 61.0 °F 48.0 °F 62% 29.87 in 10.0 mi North 4.6 mph - N/A   Clear
1:53 AM 57.9 °F 48.9 °F 72% 29.88 in 10.0 mi North 4.6 mph - N/A   Clear
2:53 AM 55.9 °F 48.9 °F 77% 29.88 in 10.0 mi North 4.6 mph - N/A   Clear
3:53 AM 54.0 °F 48.9 °F 83% 29.89 in 10.0 mi North 4.6 mph - N/A   Clear
4:53 AM 53.1 °F 48.9 °F 86% 29.89 in 10.0 mi North 4.6 mph - N/A   Clear
5:53 AM 54.0 °F 48.0 °F 80% 29.88 in 10.0 mi NE 4.6 mph - N/A   Clear
6:53 AM 54.0 °F 48.0 °F 80% 29.91 in 10.0 mi North 4.6 mph - N/A   Clear
7:53 AM 57.0 °F 48.0 °F 72% 29.89 in 10.0 mi ENE 9.2 mph - N/A   Clear
8:53 AM 61.0 °F 50.0 °F 67% 29.89 in 10.0 mi ENE 10.4 mph - N/A   Clear
9:53 AM 66.0 °F 51.1 °F 59% 29.88 in 10.0 mi East 11.5 mph - N/A   Clear
10:53 AM 69.1 °F 52.0 °F 54% 29.88 in 10.0 mi Variable 5.8 mph - N/A   Clear
11:53 AM 72.0 °F 51.1 °F 48% 29.86 in 10.0 mi Variable 4.6 mph - N/A   Clear
12:53 PM 73.9 °F 48.9 °F 41% 29.83 in 10.0 mi ESE 6.9 mph - N/A   Clear
1:53 PM 75.9 °F 50.0 °F 40% 29.80 in 10.0 mi East 12.7 mph 17.3 mph N/A   Clear
2:53 PM 78.1 °F 50.0 °F 37% 29.77 in 10.0 mi ESE 8.1 mph - N/A   Partly Cloudy
3:53 PM 79.0 °F 48.9 °F 35% 29.73 in 10.0 mi SSE 12.7 mph - N/A   Scattered Clouds
4:53 PM 78.1 °F 50.0 °F 37% 29.69 in 10.0 mi SE 15.0 mph 21.9 mph N/A   Mostly Cloudy
5:49 PM 75.2 °F 50.0 °F 41% 29.74 in 10.0 mi WNW 9.2 mph - N/A Thunderstorm Overcast
5:53 PM 73.9 °F 52.0 °F 46% 29.74 in 9.0 mi WNW 23.0 mph 28.8 mph 0.00 in Rain , Thunderstorm Light Rain
6:00 PM 64.4 °F 57.2 °F 77% 29.76 in 2.5 mi NW 17.3 mph 28.8 mph 0.05 in Rain Heavy Rain
6:09 PM 62.6 °F 59.0 °F 88% 29.74 in 3.0 mi NNW 12.7 mph - 0.07 in Rain , Thunderstorm Light Rain
6:53 PM 63.0 °F 59.0 °F 87% 29.72 in 7.0 mi NE 9.2 mph - 0.15 in Rain Light Rain
7:53 PM 63.0 °F 59.0 °F 87% 29.68 in 10.0 mi ENE 8.1 mph - 0.00 in   Overcast
8:53 PM 63.0 °F 57.9 °F 84% 29.68 in 10.0 mi North 5.8 mph - N/A   Overcast
9:53 PM 63.0 °F 57.9 °F 84% 29.67 in 10.0 mi NE 6.9 mph - N/A   Overcast
10:53 PM 63.0 °F 59.0 °F 87% 29.68 in 10.0 mi East 6.9 mph - N/A   Mostly Cloudy
11:38 PM 62.6 °F 59.0 °F 88% 29.68 in 10.0 mi East 6.9 mph - N/A   Mostly Cloudy
11:53 PM 63.0 °F 59.0 °F 87% 29.67 in 10.0 mi ESE 5.8 mph - N/A   Overcast